This is the latest recevied weather packets stored in our database for station/object SA3ARQ-13. If no packets are shown the sender has not sent any weather packets the latest 10 day(s).
| Time | Temp. | Humidity | Pressure | Rain* | Wind** | Luminosity | Snow |
|---|---|---|---|---|---|---|---|
| 1777602125 | 11.11° C | 47% | 1022.5 hPa | - | - | - | - |
| 1777601225 | 11.11° C | 47% | 1022.5 hPa | - | - | - | - |
| 1777600325 | 11.67° C | 47% | 1022.6 hPa | - | - | - | - |
| 1777599425 | 11.67° C | 47% | 1022.7 hPa | - | - | - | - |
| 1777598525 | 12.22° C | 47% | 1022.7 hPa | - | - | - | - |
| 1777597621 | 12.22° C | 46% | 1022.7 hPa | - | - | - | - |
| 1777596725 | 12.78° C | 47% | 1022.8 hPa | - | - | - | - |
| 1777595821 | 12.78° C | 46% | 1022.8 hPa | - | - | - | - |
| 1777594921 | 13.33° C | 46% | 1022.9 hPa | - | - | - | - |
| 1777594021 | 13.33° C | 46% | 1023 hPa | - | - | - | - |
| 1777593121 | 13.89° C | 46% | 1023.1 hPa | - | - | - | - |
| 1777592221 | 13.89° C | 45% | 1023.2 hPa | - | - | - | - |
| 1777591321 | 14.44° C | 45% | 1023.2 hPa | - | - | - | - |
| 1777590421 | 14.44° C | 45% | 1023.2 hPa | - | - | - | - |
| 1777589521 | 15° C | 45% | 1023.1 hPa | - | - | - | - |
| 1777588621 | 15° C | 44% | 1023.2 hPa | - | - | - | - |
| 1777587721 | 15.56° C | 45% | 1023.2 hPa | - | - | - | - |
| 1777586821 | 16.11° C | 44% | 1023.1 hPa | - | - | - | - |
| 1777585921 | 16.11° C | 44% | 1023.1 hPa | - | - | - | - |
| 1777585021 | 16.67° C | 44% | 1023.3 hPa | - | - | - | - |
| 1777584121 | 17.22° C | 44% | 1023.3 hPa | - | - | - | - |
| 1777583221 | 17.22° C | 44% | 1023.4 hPa | - | - | - | - |
| 1777582320 | 17.78° C | 44% | 1023.6 hPa | - | - | - | - |
| 1777581420 | 18.33° C | 43% | 1023.5 hPa | - | - | - | - |
| 1777580520 | 18.89° C | 43% | 1023.3 hPa | - | - | - | - |
* Rain since midnight (hover to see other rain measurements)
** Current wind speed in m/s (hover to see current wind gust speed)